Weather History for KDLF - August, 2013

Change the Weather History Date:

Monday, August 19, 2013

  Actual Average Record
Temperature  
Mean Temperature 86 °F -  
Max Temperature 96 °F 97 °F 104 °F (1997)
Min Temperature 75 °F 76 °F 70 °F (2012)
Cooling Degree Days 20    
Growing Degree Days 36 (Base 50)    
Moisture  
Dew Point 58 °F    
Average Humidity 39    
Maximum Humidity 58    
Minimum Humidity 27    
Precipitation  
Precipitation 0.00 in - - ()
Sea Level Pressure  
Sea Level Pressure 29.95 in    
Wind  
Wind Speed 9 mph (SE)    
Max Wind Speed 16 mph    
Max Gust Speed 22 mph    
Visibility 10 miles    
Events      
Averages and records for this station are not official NWS values.
T = Trace of Precipitation, MM = Missing Value Source: NWS Daily Summary

Daily Weather History Graph

Daily Weather History Graph

Search for Another Location

Airport or City:

Trip Planner

Search our weather history database for the weather conditions in past years. The results will help you decide how hot, cold, wet, or windy it might be!

Date:

Astronomy

Aug. 19, 2013 Rise Set
Actual Time 7:13 AM CDT 8:19 PM CDT
Civil Twilight 6:49 AM CDT 8:43 PM CDT
Nautical Twilight 6:19 AM CDT 9:12 PM CDT
Astronomical Twilight 5:49 AM CDT 9:43 PM CDT
Moon 7:11 PM CDT (8/19) 5:37 AM CDT (8/19)
Length of Visible Light 13h 54m
Length of Day
13h 05m
Waxing Gibbous, 97% of the Moon is Illuminated
Aug 19
Waxing Gibbous
Aug 20
Full
Aug 28
Last Quarter
Sep 5
New
Sep 12
First Quarter

Hourly Weather History & Observations

Time (CDT) Temp. Heat Index Dew Point Humidity Pressure Visibility Wind Dir Wind Speed Gust Speed Precip Events Conditions
12:58 AM 83.3 °F 82.8 °F 57.0 °F 41% 29.94 in 10.0 mi SE 5.8 mph - N/A   Clear
1:58 AM 80.8 °F 80.9 °F 56.8 °F 44% 29.94 in 10.0 mi East 5.8 mph - N/A   Clear
2:58 AM 79.9 °F - 57.2 °F 46% 29.94 in 10.0 mi ESE 8.1 mph - N/A   Clear
3:58 AM 78.6 °F - 57.7 °F 49% 29.94 in 10.0 mi SE 9.2 mph - N/A   Clear
4:58 AM 77.0 °F - 57.9 °F 52% 29.94 in 10.0 mi ESE 8.1 mph - N/A   Clear
5:58 AM 76.6 °F - 58.6 °F 54% 29.94 in 10.0 mi ESE 9.2 mph - N/A   Clear
6:58 AM 75.4 °F - 59.4 °F 57% 29.95 in 10.0 mi ESE 9.2 mph - N/A   Clear
7:58 AM 75.4 °F - 59.9 °F 58% 29.98 in 10.0 mi ESE 10.4 mph - N/A   Clear
8:58 AM 79.3 °F - 61.5 °F 54% 30.00 in 10.0 mi SE 12.7 mph - N/A   Scattered Clouds
9:58 AM 83.1 °F 83.7 °F 61.7 °F 48% 30.02 in 10.0 mi SSE 12.7 mph - N/A   Clear
10:58 AM 84.2 °F 84.4 °F 60.8 °F 45% 30.02 in 10.0 mi SSE 12.7 mph - N/A   Clear
11:58 AM 91.4 °F 91.4 °F 60.8 °F 36% 30.05 in 10.0 mi SSE 16.1 mph 21.9 mph N/A   Clear
12:55 PM 91.4 °F 89.9 °F 57.2 °F 31% 30.04 in 10.0 mi SSE 15.0 mph 20.7 mph N/A   Clear
1:58 PM 93.9 °F 92.6 °F 57.6 °F 29% 29.97 in 10.0 mi South 10.4 mph 18.4 mph N/A   Clear
2:58 PM 95.0 °F 93.7 °F 57.4 °F 28% 29.95 in 10.0 mi South 10.4 mph 18.4 mph N/A   Clear
3:49 PM 96.8 °F 95.8 °F 57.2 °F 27% 29.97 in 10.0 mi ESE 11.5 mph - N/A   Clear
3:58 PM 96.1 °F 95.2 °F 57.6 °F 28% 29.92 in 10.0 mi Variable 4.6 mph - N/A   Clear
4:18 PM 96.8 °F 95.8 °F 57.2 °F 27% 29.95 in 10.0 mi South 12.7 mph 21.9 mph N/A   Clear
4:58 PM 96.3 °F 95.1 °F 57.4 °F 27% 29.90 in 10.0 mi SE 13.8 mph - N/A   Clear
5:58 PM 95.9 °F 94.6 °F 57.0 °F 27% 29.89 in 10.0 mi SSE 6.9 mph - N/A   Partly Cloudy
6:58 PM 95.2 °F 93.9 °F 56.8 °F 28% 29.88 in 10.0 mi SE 11.5 mph - N/A   Partly Cloudy
7:58 PM 93.4 °F 91.8 °F 56.3 °F 29% 29.88 in 10.0 mi SSE 11.5 mph - N/A   Clear
8:58 PM 90.7 °F 89.2 °F 56.7 °F 32% 29.88 in 10.0 mi SSE 9.2 mph - N/A   Clear
9:58 PM 87.6 °F 86.5 °F 57.4 °F 36% 29.90 in 10.0 mi SSE 8.1 mph - N/A   Clear
10:58 PM 86.0 °F 85.0 °F 57.4 °F 38% 29.91 in 10.0 mi SE 8.1 mph - N/A   Clear
11:58 PM 82.6 °F 82.2 °F 57.0 °F 42% 29.96 in 10.0 mi ESE 5.8 mph - N/A   Clear